Regional Weather Roundup
Issued by NWS Upton, NY

Home | Current Version | Previous Version | Text Only | Print | Product List | Glossary On
Versions: 1 2 3 4 5 6 7 8 9 10 11 12 13 14 15 16 17 18 19 20 21 22 23 24 25 26 27
000
ASUS41 KOKX 260009
RWROKX

REGIONAL WEATHER ROUNDUP
NATIONAL WEATHER SERVICE NEW YORK NY
800 PM EDT TUE APR 25 2017

NOTE: "FAIR" INDICATES FEW OR NO CLOUDS BELOW 12,000 FEET WITH NO
SIGNIFICANT WEATHER AND/OR OBSTRUCTIONS TO VISIBILITY.

NYZ071-072-176-178-NJZ106-104-260100-
NEW YORK CITY METRO AREA

CITY           SKY/WX    TMP DP  RH WIND       PRES   REMARKS
Central Park   LGT RAIN  52  51  97 E12G31    29.92F FOG
Wall St Helipt LGT RAIN  53  51  93 NE20G26   29.89R FOG
Bronx Bot Gard   N/A     52  50  93 N14       29.90F
LaGuardia APRT LGT RAIN  53  50  89 NE28G35   29.89F FOG
Kennedy INTL   LGT RAIN  54  52  93 NE22G31   29.89F FOG
Breezy Point     N/A     52 N/A N/A NE14G21     N/A
Newark/Liberty RAIN      53  52  96 NE15      29.89F FOG
Teterboro      LGT RAIN  54  52  93 E14G33    29.89F FOG
$$

NYZ177-179-078>081-260100-
LONG ISLAND NEW YORK

CITY           SKY/WX    TMP DP  RH WIND       PRES   REMARKS
Jones Beach      N/A     52 N/A N/A NE23G29     N/A
Matinecock PT    N/A     50 N/A N/A E24         N/A
Farmingdale    LGT RAIN  52  51  97 NE15G21   29.90F FOG
MacArthur/ISP  LGT RAIN  54  54 100 NE13      29.92F VSB 1
Shirley        LGT RAIN  55  54  96 VRB7      29.94S
Mt Sinai Harb    N/A    N/A N/A N/A E17G24      N/A
Westhampton    LGT RAIN  53  51  93 E13G22    29.95S
East Hampton   CLOUDY    51  50  96 E12G21    29.97F
Montauk        NOT AVBL
$$

NYZ052-065-067-260100-
HUDSON VALLEY

CITY           SKY/WX    TMP DP  RH WIND       PRES   REMARKS
White Plains   LGT RAIN  53  50  89 NE18G25   29.92F FOG
Larchmont Harb   N/A     50 N/A N/A NE31        N/A
Croton O-T Hud   N/A     52 N/A N/A NE7         N/A
Newburgh       DRIZZLE   52  52 100 E13G20    29.98F FOG
Montgomery     LGT RAIN  52  50  93 NE13      29.96R
Poughkeepsie   LGT RAIN  52  49  89 NE7       29.98F FOG
Albany         LGT RAIN  53  47  79 NE6       30.05F
$$

NJZ001-105-106-008-010-013-015-019>022-104-260100-
NEW JERSEY

CITY           SKY/WX    TMP DP  RH WIND       PRES   REMARKS
Newark/Liberty RAIN      53  52  96 NE15      29.89F FOG
Teterboro      LGT RAIN  54  52  93 E14G33    29.89F FOG
Caldwell       HVY RAIN  54  53  97 E15G26    29.91F FOG
Somerville     LGT RAIN  55  53  93 VRB5      29.86S FOG
Linden         RAIN      54  52  93 NE14      29.89R
Sussex         LGT RAIN  53  52  96 NE14G22   29.93S FOG
Andover          N/A     53  52  96 VRB7      29.90F
Trenton        LGT RAIN  55  54  96 NE16      29.83F
Millville      CLOUDY    56  56 100 NE14      29.73F FOG
Atlantic City  LGT RAIN  58  56  93 E16       29.74F FOG
Wrightstown    LGT RAIN  55  53  96 NE13      29.79F
Toms River     RAIN      53  53 100 NE10G16   29.83S
Belmar         LGT RAIN  51  51 100 NE12G18   29.86S
$$

PAZ047>061-062-071-260100-
EASTERN PENNSYLVANIA

CITY           SKY/WX    TMP DP  RH WIND       PRES   REMARKS
Philadelphia   RAIN      56  54  93 NE16G24   29.80F FOG
Allentown      LGT RAIN  56  52  86 NE14      29.86F FOG
Scranton       CLOUDY    56  51  84 E10G17    29.87F
$$

CTZ002-004>006-009-010-012-RIZ004-006-007-MAZ004-011-015-260100-
SOUTHERN NEW ENGLAND
 IN CT

CITY           SKY/WX    TMP DP  RH WIND       PRES   REMARKS
Bradley INTL   LGT RAIN  48  47  96 N8        30.07F
Hartford       LGT RAIN  50  49  96 N8        30.04F
Danbury        LGT RAIN  49  49 100 NE12      29.99S FOG
Wtrbury/Oxford LGT RAIN  48  45  87 E13G18    30.00F FOG
Bridgeport     LGT RAIN  53  50  89 NE15      29.96F FOG
Meriden        CLOUDY    52  49  89 VRB6G17   30.02F
New Haven      LGT RAIN  52  50  93 NE12      29.98F FOG
Chester        RAIN      50  50 100 NE12      30.00F
Groton         HVY RAIN  53  51  93 E14       30.01F FOG
Wilimantic     CLOUDY    52  49  89 NE9       30.06S

 IN RI

CITY           SKY/WX    TMP DP  RH WIND       PRES   REMARKS
Providence     LGT RAIN  50  50 100 NE13      30.07F
Block Island   NOT AVBL
Westerly       LGT RAIN  54  53  97 NE15G26   30.03F FOG
 IN MA

CITY           SKY/WX    TMP DP  RH WIND       PRES   REMARKS
Boston         LGT RAIN  47  46  97 NE17      30.14F FOG
Worcester      LGT RAIN  43  41  93 NE10G22   30.10F VSB 1/4
Westfield      LGT RAIN  48  48 100 N12       30.07F
Provincetown   LGT RAIN  51  50  96 E16G26    30.11F
Nantucket      LGT RAIN  51  49  92 E24G32    30.05F FOG
$$

ANZ330-335-338-340-345-350-353-355-260100-
COASTAL MARINE OBSERVATIONS


STATION/POSITION TIME  SKY/WX   TEMP    WIND        PRES    VSBY  WAVE
                                AIR SEA DIR/SP/G                  HT/PER
                 (UTC)          (F)     (DEG/KT/KT) (MB)    (MI)  (FT/S)
NY HARB ENTRANCE 2250            50 47   60/ 25/ 31 1010.7          9/11
20 S FIRE ISLAND 2350            50 47   80/ 19/ 23 1010.1         10/10
GREAT SOUTH BAY  2330            54 55   70/ 19/ 29   N/A
23 SSW MONTAUK P 2250            49 45              1014.7          7/ 9
15 E BARNEGAT LI 2330               49                N/A          11/11
HUDSON CANYON    2250            54 47  100/ 19/ 23 1009.5         13/11
KINGS POINT      2330            52 48   90/ 16/ 26 1012.3
EXECUTION ROCKS  NOT AVBL
CENTRAL LI SOUND 2300            49      80/ 17/ 21   N/A           3/ 4
EASTERN LI SOUND NOT AVBL
ROBBINS REEF     2330            52      60/ 24/ 30 1011.5
$$


>>>>>>>>>>>>>>>>>>>>>>>>>>>> KEY <<<<<<<<<<<<<<<<<<<<<<<<<<<
>                                                          <
>     SKY/WX - Sky Condition/Present Weather               <
>     TMP    - Temperature in Fahrenheit                   <
>     DP     - Dew Point in Fahrenheit                     <
>     RH     - Relative Humidity in Percent                <
>     WIND   - Direction (from) and Speed in MPH           <
>     PRES   - Mean Sea Level Pressure (inches of Hg)      <
>     WCI    - Wind Chill Index                            <
>     VSB    - VISIBILITY IN MILES                         <
>     HX     - HEAT INDEX                                  <
>     TC     - TEMPERATURE IN CELSIUS                      <
>     VRB    - VARIABLE WIND DIRECTION                     <
>                                                          <
>>>>>>>>>>>>>>>>>>>>>>>>>>>> KEY <<<<<<<<<<<<<<<<<<<<<<<<<<<




USA.gov is the U.S. government's official web portal to all federal, state and local government web resources and services.